Regional Weather Roundup
Issued by NWS Upton, NY

Current Version | Previous Version | Text Only | Print | Product List | Glossary On
Versions: 1 2 3 4 5 6 7 8 9 10 11 12 13 14 15 16 17 18 19 20 21 22 23 24 25 26 27 28 29 30 31 32 33 34 35 36 37 38 39 40 41 42 43 44 45 46 47 48 49 50
000 ASUS41 KOKX 291008 RWROKX REGIONAL WEATHER ROUNDUP NATIONAL WEATHER SERVICE NEW YORK NY 600 AM EDT WED JUL 29 2015 NOTE: "FAIR" INDICATES FEW OR NO CLOUDS BELOW 12,000 FEET WITH NO SIGNIFICANT WEATHER AND/OR OBSTRUCTIONS TO VISIBILITY. NYZ071-072-176-178-NJZ106-104-291100- NEW YORK CITY METRO AREA CITY SKY/WX TMP DP RH WIND PRES REMARKS CENTRAL PARK CLEAR 79 66 64 VRB3 29.99R LAGUARDIA APRT PTCLDY 80 65 59 CALM 29.96R KENNEDY INTL PTCLDY 75 72 90 SW3 29.97R FOG NEWARK/LIBERTY PTCLDY 76 67 73 SW6 29.96R BRNX BOT. GARD N/A 77 64 65 N2 29.98R TETERBORO CLEAR 75 64 68 N3 29.96R $$ NYZ177-179-078>081-291100- LONG ISLAND NEW YORK CITY SKY/WX TMP DP RH WIND PRES REMARKS FARMINGDALE CLEAR 75 70 84 CALM 29.97R ISLIP PTCLDY 72 69 90 SW6 29.95R SHIRLEY CLEAR 70 68 93 CALM 29.96S FOG WESTHAMPTON MOCLDY 65 63 93 CALM 29.97S FOG MONTAUK POINT N/A 74 70 87 NW3 29.97R $$ NYZ052-065-067-291100- HUDSON VALLEY CITY SKY/WX TMP DP RH WIND PRES REMARKS WHITE PLAINS CLEAR 72 68 87 NW7 29.98R NEWBURGH NOT AVBL MONTGOMERY CLEAR 65 64 97 CALM 29.99R FOG POUGHKEEPSIE CLEAR 67 64 90 NE3 29.97R ALBANY MOCLDY 68 63 84 CALM 29.99R $$ NJZ001-105-106-008-010-013-015-019>022-104-291100- NEW JERSEY CITY SKY/WX TMP DP RH WIND PRES REMARKS NEWARK/LIBERTY PTCLDY 76 67 73 SW6 29.96R TETERBORO CLEAR 75 64 68 N3 29.96R CALDWELL CLEAR 69 64 84 CALM 29.98R MORRISTOWN CLEAR 64 61 88 N3 29.98R SOMERVILLE CLEAR 65 63 93 CALM 29.97R SUSSEX CLEAR 64 62 93 CALM 30.01R ANDOVER N/A 65 64 97 CALM 30.01R TRENTON CLEAR 72 69 90 NW3 29.97R FOG MILLVILLE CLEAR 69 68 96 CALM 29.98R FOG ATLANTIC CITY CLEAR 73 71 93 W3 29.98R WRIGHTSTOWN CLEAR 69 69 99 CALM 29.96R FOG TOMS RIVER CLOUDY 64 63 94 CALM 29.98R BELMAR CLEAR 70 64 83 W3 29.98R $$ PAZ047>061-062-071-291100- EASTERN PENNSYLVANIA CITY SKY/WX TMP DP RH WIND PRES REMARKS PHILADELPHIA PTCLDY 76 71 85 CALM 29.98R ALLENTOWN CLEAR 68 65 90 CALM 30.00R SCRANTON CLEAR 66 61 84 E5 30.04R $$ CTZ002-004>006-009-010-012-RIZ004-006-007-MAZ004-011-015-291100- SOUTHERN NEW ENGLAND IN CT CITY SKY/WX TMP DP RH WIND PRES REMARKS BRADLEY INTL PTCLDY 67 64 90 CALM 29.96R HARTFORD CLEAR 69 67 93 CALM 29.96R DANBURY CLEAR 65 62 90 CALM 30.00R FOG WTRBRY/OXFORD CLEAR 68 61 77 CALM 30.01R BRIDGEPORT CLEAR 74 69 85 CALM 29.95S MERIDEN CLEAR 68 65 90 CALM 29.97R NEW HAVEN PTCLDY 69 66 90 CALM 29.96R CHESTER FAIR 72 66 83 NW3 29.98R GROTON CLEAR 69 67 93 NW6 29.95R FOG WILLIMANTIC CLEAR 67 64 90 CALM 29.97R IN RI CITY SKY/WX TMP DP RH WIND PRES REMARKS PROVIDENCE MOCLDY 70 67 90 CALM 29.96R BLOCK ISLAND CLEAR 72 70 94 NW5 29.97R WESTERLY CLEAR 68 65 90 CALM 29.96R IN MA CITY SKY/WX TMP DP RH WIND PRES REMARKS BOSTON PTCLDY 73 67 81 W6 29.95R WORCESTER CLEAR 72 63 73 W9 30.00R WESTFIELD CLEAR 65 64 97 CALM 29.97R FOG PROVINCETOWN CLEAR 64 61 88 CALM 29.95S NANTUCKET PTCLDY 69 68 96 NW5 29.95R $$ ANZ330-335-338-340-345-350-353-355-291100- COASTAL MARINE OBSERVATIONS STATION/POSITION TIME SKY/WX TEMP WIND PRES VSBY WAVE AIR SEA DIR/SP/G HT/PER (UTC) (F) (DEG/KT/KT) (MB) (MI) (FT/S) NY HARB ENTRANCE 0950 75 76 260/ 6/ 6 1014.3 2/ 7 4S FIRE IS NOT AVBL 20S FIRE ISLAND 0950 75 74 260/ 6/ 6 1014.3 2/ 9 GREAT SOUTH BAY 0900 78 81 270/ 4/ 6 N/A 23SW MTP 0950 73 72 280/ 8/ 8 1013.9 2/10 HUDSON CANYON NOT AVBL KINGS POINT 0900 78 72 180/ 2/ 3 1013.4 CENTRAL LI SOUND NOT AVBL EASTERN LI SOUND 0900 71 69 20/ 4/ 4 N/A ROBBINS REEF 0900 76 270/ 6/ 7 1013.2 $$ >>>>>>>>>>>>>>>>>>>>>>>>>>>> KEY <<<<<<<<<<<<<<<<<<<<<<<<<<< > < > SKY/WX - SKY CONDITION/PRESENT WEATHER < > TMP - TEMPERATURE IN FAHRENHEIT < > DP - DEWPOINT IN FAHRENHEIT < > RH - RELATIVE HUMIDITY IN PERCENT < > WIND - DIRECTION AND SPEED IN MPH < > PRES - MEAN SEA LEVEL PRESSURE IN INCHES OF HG < > WCI - WIND CHILL INDEX < > VSB - VISIBILITY IN MILES < > HX - HEAT INDEX < > TC - TEMPERATURE IN CELSIUS < > VRB - VARIABLE WIND DIRECTION < > < >>>>>>>>>>>>>>>>>>>>>>>>>>>> KEY <<<<<<<<<<<<<<<<<<<<<<<<<<<

USA.gov is the U.S. government's official web portal to all federal, state and local government web resources and services.